Location: Unspecified
(50.7693°N, 0.0000°E)
Time: 04:03:16
(UTC+00:00)

A-11 Canister half - Pass Details

Date: 26 June 2019
Orbit: 1526 x 1683 km, 47.3° (Epoch: 21 July)

Event Time Altitude Azimuth Distance (km) Brightness Sun altitude
Rises 03:21:58 0° 221° (SW) 4,773 - -3.9°
Exits shadow 03:23:19 - 219° (SW) 4,357 10.7 -3.7°
Reaches altitude 10° 03:25:15 10° 215° (SW) 3,769 10.4 -3.5°
Maximum altitude 03:34:01 44° 148° (SSE) 2,040 9.6 -2.5°
Drops below altitude 10° 03:42:37 10° 80° (E) 3,702 12.1 -1.5°
Sets 03:45:49 0° 75° (ENE) 4,681 12.9 -1.1°
